| time (UTC) | temp F | wind direction | speed MPH | gust MPH | rain 1hr in | rain 24hr in | rain mn in | humidity % | barometer mb |
| 20260902154604 | 61 | 0 | 0.0 | 0.0 | 0.00 | 0.01 | 0.00 | 71 | 1006.2 |
| 20260902153104 | 60 | 0 | 0.0 | 0.0 | 0.00 | 0.01 | 0.00 | 73 | 1006.4 |
| 20260902151601 | 60 | 0 | 0.0 | 0.0 | 0.00 | 0.01 | 0.00 | 73 | 1006.5 |
| 20260902150059 | 60 | 0 | 0.0 | 0.0 | 0.00 | 0.01 | 0.00 | 75 | 1006.6 |
| 20260902144614 | 59 | 0 | 0.0 | 0.0 | 0.00 | 0.01 | 0.00 | 76 | 1006.7 |
| 20260902143057 | 59 | 0 | 0.0 | 0.0 | 0.00 | 0.01 | 0.00 | 76 | 1006.8 |
| 20260902141602 | 59 | 0 | 0.0 | 0.0 | 0.00 | 0.01 | 0.00 | 77 | 1007.0 |
| 20260902134601 | 58 | 0 | 0.0 | 0.0 | 0.00 | 0.01 | 0.00 | 79 | 1007.4 |
| 20260902133103 | 58 | 0 | 0.0 | 0.0 | 0.00 | 0.01 | 0.00 | 79 | 1007.5 |
| 20260902131557 | 58 | 0 | 0.0 | 0.0 | 0.00 | 0.01 | 0.00 | 79 | 1007.7 |
| 20260902130106 | 58 | 0 | 0.0 | 0.0 | 0.00 | 0.01 | 0.00 | 79 | 1008.0 |
| 20260902124556 | 58 | 0 | 0.0 | 0.0 | 0.00 | 0.01 | 0.00 | 79 | 1008.2 |
| 20260902123056 | 58 | 0 | 0.0 | 0.0 | 0.00 | 0.01 | 0.00 | 79 | 1008.3 |
| 20260902121600 | 58 | 0 | 0.0 | 0.0 | 0.00 | 0.01 | 0.00 | 80 | 1008.6 |
| 20260902120058 | 58 | 0 | 0.0 | 0.0 | 0.00 | 0.01 | 0.00 | 80 | 1008.8 |
| 20260902114558 | 58 | 0 | 0.0 | 0.0 | 0.00 | 0.01 | 0.00 | 80 | 1009.0 |
| 20260902113101 | 58 | 0 | 0.0 | 0.0 | 0.00 | 0.01 | 0.00 | 80 | 1009.0 |
| 20260902111556 | 58 | 0 | 0.0 | 0.0 | 0.00 | 0.01 | 0.00 | 80 | 1009.3 |
| 20260902110108 | 58 | 0 | 0.0 | 0.0 | 0.00 | 0.01 | 0.00 | 80 | 1009.4 |
| 20260902104557 | 58 | 0 | 0.0 | 0.0 | 0.00 | 0.01 | 0.00 | 80 | 1009.4 |
| 20260902103054 | 58 | 0 | 0.0 | 0.0 | 0.00 | 0.01 | 0.00 | 80 | 1009.5 |
| 20260902101602 | 58 | 0 | 0.0 | 0.0 | 0.00 | 0.01 | 0.00 | 82 | 1009.6 |
| 20260902100110 | 58 | 0 | 0.0 | 0.0 | 0.00 | 0.01 | 0.00 | 83 | 1009.5 |
| 20260902094616 | 57 | 0 | 0.0 | 0.0 | 0.00 | 0.01 | 0.00 | 84 | 1009.6 |
| 20260902093058 | 57 | 0 | 0.0 | 0.0 | 0.00 | 0.01 | 0.00 | 84 | 1009.8 |
| 20260902091602 | 57 | 0 | 0.0 | 0.0 | 0.00 | 0.01 | 0.00 | 85 | 1010.0 |
| 20260902084601 | 57 | 0 | 0.0 | 0.0 | 0.00 | 0.01 | 0.00 | 85 | 1010.3 |
| 20260902083058 | 58 | 0 | 0.0 | 0.0 | 0.00 | 0.01 | 0.00 | 84 | 1010.3 |
| 20260902081602 | 58 | 0 | 0.0 | 0.0 | 0.00 | 0.01 | 0.00 | 83 | 1010.3 |
| 20260902080113 | 59 | 0 | 0.0 | 0.0 | 0.00 | 0.01 | 0.00 | 82 | 1010.3 |
| 20260902074600 | 59 | 0 | 0.0 | 0.0 | 0.00 | 0.01 | 0.00 | 81 | 1010.3 |
| 20260902073103 | 59 | 0 | 0.0 | 0.0 | 0.00 | 0.01 | 0.00 | 80 | 1010.4 |
| 20260902071555 | 59 | 0 | 0.0 | 0.0 | 0.00 | 0.01 | 0.00 | 79 | 1010.7 |
| 20260902070107 | 59 | 0 | 0.0 | 0.0 | 0.00 | 0.01 | 0.00 | 79 | 1010.9 |
| 20260902064611 | 59 | 0 | 0.0 | 0.0 | 0.00 | 0.01 | 0.01 | 79 | 1011.0 |
| 20260902063106 | 59 | 0 | 0.0 | 0.0 | 0.00 | 0.01 | 0.01 | 80 | 1010.9 |
| 20260902061602 | 59 | 0 | 0.0 | 0.0 | 0.00 | 0.01 | 0.01 | 79 | 1010.7 |
| 20260902060113 | 60 | 0 | 0.0 | 0.0 | 0.00 | 0.01 | 0.01 | 80 | 1010.9 |
| 20260902054557 | 60 | 0 | 0.0 | 0.0 | 0.00 | 0.01 | 0.01 | 79 | 1010.8 |
| 20260902053124 | 60 | 0 | 0.0 | 0.0 | 0.00 | 0.01 | 0.01 | 79 | 1011.1 |
| 20260902051606 | 60 | 0 | 0.0 | 0.0 | 0.00 | 0.01 | 0.01 | 78 | 1011.1 |
| 20260902050059 | 60 | 0 | 0.0 | 0.0 | 0.00 | 0.01 | 0.01 | 77 | 1011.1 |
| 20260902044601 | 61 | 0 | 0.0 | 0.0 | 0.00 | 0.01 | 0.01 | 77 | 1011.2 |
| 20260902043100 | 61 | 0 | 0.0 | 0.0 | 0.00 | 0.01 | 0.01 | 75 | 1011.1 |
| 20260902041600 | 61 | 0 | 0.0 | 0.0 | 0.00 | 0.01 | 0.01 | 75 | 1011.1 |
| 20260902040059 | 61 | 0 | 0.0 | 0.0 | 0.00 | 0.01 | 0.01 | 76 | 1011.1 |
| 20260902034607 | 61 | 0 | 0.0 | 0.0 | 0.00 | 0.01 | 0.01 | 76 | 1011.0 |
| 20260902033107 | 61 | 0 | 0.0 | 0.0 | 0.00 | 0.01 | 0.01 | 78 | 1010.9 |
| 20260902031600 | 61 | 0 | 0.0 | 0.0 | 0.00 | 0.01 | 0.01 | 80 | 1010.9 |
| 20260902030056 | 61 | 0 | 0.0 | 0.0 | 0.00 | 0.01 | 0.01 | 81 | 1010.8 |
| 20260902024608 | 62 | 0 | 0.0 | 0.0 | 0.00 | 0.01 | 0.01 | 80 | 1010.9 |
| 20260902023056 | 62 | 0 | 0.0 | 0.0 | 0.00 | 0.01 | 0.01 | 79 | 1010.8 |
| 20260902021612 | 62 | 0 | 0.0 | 0.0 | 0.00 | 0.01 | 0.01 | 78 | 1010.9 |
| 20260902020056 | 62 | 0 | 0.0 | 0.0 | 0.00 | 0.01 | 0.01 | 77 | 1010.7 |
| 20260902014558 | 63 | 0 | 0.0 | 0.0 | 0.00 | 0.01 | 0.01 | 73 | 1010.6 |
| 20260902013104 | 63 | 0 | 0.0 | 0.0 | 0.00 | 0.01 | 0.01 | 77 | 1010.7 |
| 20260902011559 | 63 | 0 | 0.0 | 0.0 | 0.00 | 0.01 | 0.01 | 77 | 1010.5 |
| 20260902004600 | 63 | 0 | 0.0 | 0.0 | 0.00 | 0.01 | 0.01 | 75 | 1010.4 |
| 20260902003104 | 64 | 0 | 0.0 | 0.0 | 0.00 | 0.01 | 0.01 | 71 | 1010.4 |
| 20260902001559 | 64 | 0 | 0.0 | 0.0 | 0.00 | 0.01 | 0.01 | 70 | 1010.3 |
| 20260902000100 | 64 | 0 | 0.0 | 0.0 | 0.00 | 0.01 | 0.01 | 70 | 1010.3 |
| 20260901234601 | 64 | 0 | 0.0 | 0.0 | 0.00 | 0.01 | 0.01 | 70 | 1010.5 |
| 20260901233105 | 64 | 0 | 0.0 | 0.0 | 0.00 | 0.01 | 0.01 | 70 | 1010.6 |
| 20260901231600 | 64 | 0 | 0.0 | 0.0 | 0.00 | 0.01 | 0.01 | 70 | 1010.6 |
| 20260901230100 | 64 | 0 | 0.0 | 0.0 | 0.00 | 0.01 | 0.01 | 71 | 1010.8 |
| 20260901224601 | 64 | 0 | 0.0 | 0.0 | 0.00 | 0.01 | 0.01 | 72 | 1010.8 |
| 20260901223100 | 64 | 0 | 0.0 | 0.0 | 0.00 | 0.01 | 0.01 | 71 | 1010.9 |
| 20260901221559 | 64 | 0 | 0.0 | 0.0 | 0.00 | 0.01 | 0.01 | 73 | 1010.9 |
| 20260901220108 | 63 | 0 | 0.0 | 0.0 | 0.00 | 0.01 | 0.01 | 75 | 1010.7 |
| 20260901214557 | 63 | 0 | 0.0 | 0.0 | 0.00 | 0.01 | 0.01 | 73 | 1010.8 |
| 20260901213100 | 63 | 0 | 0.0 | 0.0 | 0.00 | 0.01 | 0.01 | 74 | 1010.8 |
| 20260901211602 | 63 | 0 | 0.0 | 0.0 | 0.00 | 0.01 | 0.01 | 75 | 1010.8 |
| 20260901210101 | 63 | 0 | 0.0 | 0.0 | 0.00 | 0.01 | 0.01 | 77 | 1010.8 |
| 20260901204559 | 63 | 0 | 0.0 | 0.0 | 0.00 | 0.01 | 0.01 | 76 | 1011.0 |
| 20260901203105 | 63 | 0 | 0.0 | 0.0 | 0.00 | 0.01 | 0.01 | 75 | 1010.9 |
| 20260901201557 | 63 | 0 | 0.0 | 0.0 | 0.00 | 0.01 | 0.01 | 77 | 1011.0 |
| 20260901200110 | 62 | 0 | 0.0 | 0.0 | 0.00 | 0.01 | 0.01 | 78 | 1011.0 |
| 20260901194604 | 62 | 0 | 0.0 | 0.0 | 0.00 | 0.01 | 0.01 | 79 | 1011.0 |
| 20260901193109 | 61 | 0 | 0.0 | 0.0 | 0.00 | 0.01 | 0.01 | 81 | 1011.2 |
| 20260901191607 | 61 | 0 | 0.0 | 0.0 | 0.00 | 0.01 | 0.01 | 84 | 1011.4 |
| 20260901190113 | 60 | 0 | 0.0 | 0.0 | 0.00 | 0.01 | 0.01 | 85 | 1011.6 |
| 20260901184557 | 60 | 0 | 0.0 | 0.0 | 0.00 | 0.01 | 0.01 | 86 | 1011.7 |
| 20260901183101 | 59 | 0 | 0.0 | 0.0 | 0.00 | 0.01 | 0.01 | 90 | 1011.6 |
| 20260901181601 | 58 | 0 | 0.0 | 0.0 | 0.00 | 0.01 | 0.01 | 92 | 1011.7 |
| 20260901174556 | 57 | 0 | 0.0 | 0.0 | 0.01 | 0.01 | 0.01 | 94 | 1011.7 |
| 20260901173105 | 56 | 0 | 0.0 | 0.0 | 0.01 | 0.01 | 0.01 | 94 | 1011.8 |
| 20260901171610 | 56 | 0 | 0.0 | 0.0 | 0.01 | 0.01 | 0.01 | 94 | 1011.6 |
| 20260901170108 | 56 | 0 | 0.0 | 0.0 | 0.00 | 0.00 | 0.00 | 94 | 1011.6 |
| 20260901164602 | 56 | 0 | 0.0 | 0.0 | 0.00 | 0.00 | 0.00 | 94 | 1011.5 |
| 20260901163102 | 56 | 0 | 0.0 | 0.0 | 0.00 | 0.00 | 0.00 | 94 | 1011.4 |
| 20260901161559 | 56 | 0 | 0.0 | 0.0 | 0.00 | 0.00 | 0.00 | 93 | 1011.6 |
| 20260901160104 | 56 | 0 | 0.0 | 0.0 | 0.00 | 0.00 | 0.00 | 93 | 1011.4 |